| time (UTC) | temp F | wind direction | speed knots | gust knots | rain 1hr in | rain 24hr in | rain mn in | humidity % | barometer mb |
| 20260902102509 | 48 | 326 | 4.3 | 7.8 | 0.00 | 0.00 | 0.00 | 73 | 1013.2 |
| 20260902102010 | 49 | 343 | 4.3 | 7.8 | 0.00 | 0.00 | 0.00 | 72 | 1013.1 |
| 20260902101518 | 49 | 318 | 4.3 | 8.7 | 0.00 | 0.00 | 0.00 | 71 | 1013.1 |
| 20260902101014 | 50 | 326 | 5.2 | 8.7 | 0.00 | 0.00 | 0.00 | 71 | 1013.2 |
| 20260902100513 | 50 | 322 | 4.3 | 9.6 | 0.00 | 0.00 | 0.00 | 71 | 1013.1 |
| 20260902100027 | 50 | 310 | 5.2 | 9.6 | 0.00 | 0.00 | 0.00 | 70 | 1012.9 |
| 20260902095514 | 51 | 328 | 6.1 | 10.4 | 0.00 | 0.00 | 0.00 | 70 | 1012.8 |
| 20260902095016 | 51 | 345 | 6.1 | 12.2 | 0.00 | 0.00 | 0.00 | 71 | 1012.9 |
| 20260902094530 | 51 | 322 | 7.0 | 12.2 | 0.00 | 0.00 | 0.00 | 71 | 1012.8 |
| 20260902094012 | 51 | 297 | 7.0 | 12.2 | 0.00 | 0.00 | 0.00 | 71 | 1012.7 |
| 20260902093518 | 51 | 328 | 6.1 | 11.3 | 0.00 | 0.00 | 0.00 | 71 | 1012.7 |
| 20260902093035 | 51 | 323 | 7.0 | 12.2 | 0.00 | 0.00 | 0.00 | 72 | 1012.6 |
| 20260902092519 | 50 | 325 | 7.8 | 12.2 | 0.00 | 0.00 | 0.00 | 72 | 1012.6 |
| 20260902092016 | 50 | 349 | 7.0 | 12.2 | 0.00 | 0.00 | 0.00 | 72 | 1012.5 |
| 20260902091527 | 50 | 356 | 8.7 | 12.2 | 0.00 | 0.00 | 0.00 | 72 | 1012.5 |
| 20260902091012 | 50 | 335 | 7.8 | 10.4 | 0.00 | 0.00 | 0.00 | 72 | 1012.4 |
| 20260902090513 | 50 | 331 | 7.0 | 10.4 | 0.00 | 0.00 | 0.00 | 71 | 1012.5 |
| 20260902090018 | 50 | 312 | 6.1 | 10.4 | 0.00 | 0.00 | 0.00 | 71 | 1012.5 |
| 20260902085511 | 50 | 318 | 6.1 | 10.4 | 0.00 | 0.00 | 0.00 | 71 | 1012.5 |
| 20260902085015 | 51 | 314 | 6.1 | 9.6 | 0.00 | 0.00 | 0.00 | 70 | 1012.5 |
| 20260902084528 | 51 | 342 | 6.1 | 9.6 | 0.00 | 0.00 | 0.00 | 70 | 1012.4 |
| 20260902084015 | 51 | 324 | 6.1 | 9.6 | 0.00 | 0.00 | 0.00 | 69 | 1012.4 |
| 20260902083513 | 52 | 320 | 6.1 | 9.6 | 0.00 | 0.00 | 0.00 | 69 | 1012.3 |
| 20260902083036 | 52 | 331 | 6.1 | 9.6 | 0.00 | 0.00 | 0.00 | 69 | 1012.4 |
| 20260902082503 | 52 | 341 | 6.1 | 10.4 | 0.00 | 0.00 | 0.00 | 69 | 1012.4 |
| 20260902082008 | 52 | 339 | 7.0 | 11.3 | 0.00 | 0.00 | 0.00 | 69 | 1012.3 |
| 20260902081507 | 53 | 344 | 6.1 | 11.3 | 0.00 | 0.00 | 0.00 | 69 | 1012.3 |
| 20260902081016 | 53 | 338 | 7.0 | 12.2 | 0.00 | 0.00 | 0.00 | 68 | 1012.4 |
| 20260902080509 | 53 | 334 | 8.7 | 12.2 | 0.00 | 0.00 | 0.00 | 68 | 1012.4 |
| 20260902080005 | 53 | 351 | 6.1 | 10.4 | 0.00 | 0.00 | 0.00 | 69 | 1012.3 |
| 20260902075511 | 54 | 343 | 6.1 | 10.4 | 0.00 | 0.00 | 0.00 | 68 | 1012.3 |
| 20260902075007 | 54 | 335 | 6.1 | 11.3 | 0.00 | 0.00 | 0.00 | 68 | 1012.2 |
| 20260902074505 | 55 | 328 | 7.0 | 12.2 | 0.00 | 0.00 | 0.00 | 67 | 1012.2 |
| 20260902074012 | 55 | 345 | 7.0 | 14.8 | 0.00 | 0.00 | 0.00 | 67 | 1012.1 |
| 20260902073505 | 56 | 324 | 7.8 | 14.8 | 0.00 | 0.00 | 0.00 | 67 | 1012.1 |
| 20260902073014 | 56 | 337 | 5.2 | 13.9 | 0.00 | 0.00 | 0.00 | 67 | 1012.2 |
| 20260902072503 | 56 | 347 | 7.8 | 16.5 | 0.00 | 0.00 | 0.00 | 66 | 1012.2 |
| 20260902072006 | 57 | 8 | 7.8 | 16.5 | 0.00 | 0.00 | 0.00 | 66 | 1012.2 |
| 20260902071507 | 57 | 14 | 7.0 | 13.9 | 0.00 | 0.00 | 0.00 | 66 | 1012.2 |
| 20260902071008 | 57 | 10 | 5.2 | 14.8 | 0.00 | 0.00 | 0.00 | 66 | 1012.2 |
| 20260902070507 | 56 | 347 | 7.0 | 14.8 | 0.00 | 0.00 | 0.00 | 65 | 1012.1 |
| 20260902070015 | 57 | 358 | 8.7 | 16.5 | 0.00 | 0.00 | 0.00 | 64 | 1012.2 |
| 20260902065508 | 57 | 347 | 9.6 | 16.5 | 0.00 | 0.00 | 0.00 | 64 | 1012.2 |
| 20260902065012 | 58 | 344 | 7.8 | 14.8 | 0.00 | 0.00 | 0.00 | 63 | 1012.2 |
| 20260902064517 | 58 | 11 | 6.1 | 12.2 | 0.00 | 0.00 | 0.00 | 65 | 1012.2 |
| 20260902064006 | 57 | 351 | 5.2 | 12.2 | 0.00 | 0.00 | 0.00 | 65 | 1012.3 |
| 20260902063512 | 57 | 339 | 6.1 | 13.9 | 0.00 | 0.00 | 0.00 | 65 | 1012.3 |
| 20260902063017 | 57 | 345 | 8.7 | 13.9 | 0.00 | 0.00 | 0.00 | 63 | 1012.4 |
| 20260902062516 | 59 | 332 | 7.8 | 13.0 | 0.00 | 0.00 | 0.00 | 62 | 1012.5 |
| 20260902062014 | 60 | 341 | 7.8 | 13.0 | 0.00 | 0.00 | 0.00 | 63 | 1012.5 |
| 20260902061506 | 59 | 339 | 6.1 | 14.8 | 0.00 | 0.00 | 0.00 | 65 | 1012.6 |
| 20260902061011 | 59 | 349 | 7.0 | 15.6 | 0.00 | 0.00 | 0.00 | 62 | 1012.6 |
| 20260902060508 | 60 | 358 | 7.8 | 15.6 | 0.00 | 0.00 | 0.00 | 64 | 1012.7 |
| 20260902060008 | 58 | 11 | 5.2 | 13.0 | 0.00 | 0.00 | 0.00 | 64 | 1012.5 |
| 20260902055508 | 58 | 347 | 5.2 | 14.8 | 0.00 | 0.00 | 0.00 | 64 | 1012.6 |
| 20260902055010 | 59 | 7 | 7.0 | 14.8 | 0.00 | 0.00 | 0.00 | 62 | 1012.7 |
| 20260902054524 | 60 | 337 | 11.3 | 14.8 | 0.00 | 0.00 | 0.00 | 61 | 1012.6 |
| 20260902054009 | 58 | 339 | 7.0 | 13.9 | 0.00 | 0.00 | 0.00 | 64 | 1012.7 |
| 20260902053508 | 59 | 336 | 7.8 | 16.5 | 0.00 | 0.00 | 0.00 | 60 | 1012.7 |
| 20260902053026 | 60 | 338 | 10.4 | 16.5 | 0.00 | 0.00 | 0.00 | 60 | 1012.7 |
| 20260902052509 | 59 | 330 | 7.0 | 14.8 | 0.00 | 0.00 | 0.00 | 61 | 1012.8 |
| 20260902052014 | 59 | 339 | 10.4 | 15.6 | 0.00 | 0.00 | 0.00 | 59 | 1012.9 |
| 20260902051527 | 60 | 337 | 6.1 | 15.6 | 0.00 | 0.00 | 0.00 | 60 | 1012.9 |
| 20260902051007 | 61 | 311 | 11.3 | 15.6 | 0.00 | 0.00 | 0.00 | 57 | 1012.8 |
| 20260902050520 | 61 | 330 | 9.6 | 15.6 | 0.00 | 0.00 | 0.00 | 59 | 1012.8 |
| 20260902050010 | 60 | 349 | 8.7 | 16.5 | 0.00 | 0.00 | 0.00 | 61 | 1012.8 |
| 20260902045505 | 60 | 351 | 9.6 | 19.1 | 0.00 | 0.00 | 0.00 | 59 | 1012.8 |
| 20260902045008 | 60 | 3 | 6.1 | 19.1 | 0.00 | 0.00 | 0.00 | 61 | 1012.8 |
| 20260902044513 | 60 | 337 | 7.8 | 14.8 | 0.00 | 0.00 | 0.00 | 62 | 1012.8 |
| 20260902044009 | 60 | 345 | 7.8 | 18.2 | 0.00 | 0.00 | 0.00 | 61 | 1012.9 |
| 20260902043510 | 60 | 340 | 9.6 | 18.2 | 0.00 | 0.00 | 0.00 | 59 | 1012.9 |
| 20260902043017 | 61 | 4 | 9.6 | 18.2 | 0.00 | 0.00 | 0.00 | 60 | 1012.8 |
| 20260902042511 | 61 | 346 | 11.3 | 18.2 | 0.00 | 0.00 | 0.00 | 61 | 1012.7 |
| 20260902042012 | 60 | 329 | 10.4 | 17.4 | 0.00 | 0.00 | 0.00 | 60 | 1012.8 |
| 20260902041510 | 61 | 338 | 7.8 | 15.6 | 0.00 | 0.00 | 0.00 | 63 | 1012.7 |
| 20260902041016 | 60 | 4 | 9.6 | 18.2 | 0.00 | 0.00 | 0.00 | 62 | 1012.8 |
| 20260902040511 | 61 | 16 | 10.4 | 18.2 | 0.00 | 0.00 | 0.00 | 61 | 1012.8 |
| 20260902040030 | 60 | 336 | 9.6 | 15.6 | 0.00 | 0.00 | 0.00 | 60 | 1012.8 |
| 20260902035512 | 60 | 334 | 8.7 | 15.6 | 0.00 | 0.00 | 0.00 | 60 | 1012.8 |
| 20260902035010 | 62 | 342 | 9.6 | 17.4 | 0.00 | 0.00 | 0.00 | 61 | 1012.9 |
| 20260902034530 | 61 | 336 | 8.7 | 17.4 | 0.00 | 0.00 | 0.00 | 61 | 1012.9 |
| 20260902034007 | 61 | 312 | 7.8 | 13.9 | 0.00 | 0.00 | 0.00 | 66 | 1013.0 |
| 20260902033512 | 59 | 333 | 0.9 | 4.3 | 0.00 | 0.00 | 0.00 | 71 | 1013.1 |
| 20260902033016 | 58 | 141 | 0.0 | 3.5 | 0.00 | 0.00 | 0.00 | 70 | 1013.2 |
| 20260902032512 | 58 | 139 | 1.7 | 4.3 | 0.00 | 0.00 | 0.00 | 71 | 1013.3 |
| 20260902032023 | 57 | 132 | 0.9 | 5.2 | 0.00 | 0.00 | 0.00 | 71 | 1013.3 |
| 20260902031527 | 58 | 195 | 3.5 | 5.2 | 0.00 | 0.00 | 0.00 | 71 | 1013.3 |
| 20260902031011 | 58 | 135 | 2.6 | 5.2 | 0.00 | 0.00 | 0.00 | 71 | 1013.4 |
| 20260902030514 | 58 | 105 | 2.6 | 5.2 | 0.00 | 0.00 | 0.00 | 71 | 1013.6 |
| 20260902030024 | 58 | 204 | 1.7 | 5.2 | 0.00 | 0.00 | 0.00 | 72 | 1013.6 |
| 20260902025519 | 58 | 175 | 3.5 | 6.1 | 0.00 | 0.00 | 0.00 | 71 | 1013.7 |
| 20260902025014 | 57 | 260 | 0.9 | 6.1 | 0.00 | 0.00 | 0.00 | 72 | 1013.7 |
| 20260902024521 | 57 | 209 | 0.9 | 4.3 | 0.00 | 0.00 | 0.00 | 72 | 1014.0 |
| 20260902024019 | 57 | 128 | 0.9 | 3.5 | 0.00 | 0.00 | 0.00 | 72 | 1014.1 |
| 20260902023516 | 57 | 214 | 1.7 | 5.2 | 0.00 | 0.00 | 0.00 | 72 | 1014.2 |
| 20260902023033 | 56 | 175 | 1.7 | 5.2 | 0.00 | 0.00 | 0.00 | 74 | 1014.1 |
| 20260902022504 | 56 | 193 | 1.7 | 8.7 | 0.00 | 0.00 | 0.00 | 73 | 1014.4 |
| 20260902022005 | 55 | 232 | 4.3 | 8.7 | 0.00 | 0.00 | 0.00 | 72 | 1014.5 |
| 20260902021525 | 56 | 219 | 3.5 | 7.8 | 0.00 | 0.00 | 0.00 | 72 | 1014.5 |
| 20260902021007 | 56 | 191 | 2.6 | 7.8 | 0.00 | 0.00 | 0.00 | 73 | 1014.5 |
| 20260902020504 | 56 | 192 | 3.5 | 7.8 | 0.00 | 0.00 | 0.00 | 73 | 1014.7 |
| 20260902020004 | 56 | 208 | 2.6 | 7.8 | 0.00 | 0.00 | 0.00 | 70 | 1014.8 |
| 20260902015504 | 57 | 147 | 0.9 | 2.6 | 0.00 | 0.00 | 0.00 | 70 | 1014.9 |
| 20260902015004 | 57 | 71 | 0.0 | 1.7 | 0.00 | 0.00 | 0.00 | 71 | 1014.9 |
| 20260902014507 | 56 | 70 | 0.0 | 2.6 | 0.00 | 0.00 | 0.00 | 73 | 1015.0 |
| 20260902014006 | 55 | 101 | 0.9 | 6.1 | 0.00 | 0.00 | 0.00 | 72 | 1015.1 |
| 20260902013510 | 55 | 98 | 2.6 | 7.0 | 0.00 | 0.00 | 0.00 | 73 | 1015.2 |
| 20260902013007 | 55 | 121 | 4.3 | 7.0 | 0.00 | 0.00 | 0.00 | 73 | 1015.2 |
| 20260902012508 | 55 | 77 | 1.7 | 5.2 | 0.00 | 0.00 | 0.00 | 74 | 1015.2 |
| 20260902012008 | 54 | 72 | 0.9 | 7.8 | 0.00 | 0.00 | 0.00 | 74 | 1015.2 |
| 20260902011510 | 54 | 100 | 2.6 | 7.8 | 0.00 | 0.00 | 0.00 | 75 | 1015.3 |
| 20260902011012 | 54 | 210 | 2.6 | 4.3 | 0.00 | 0.00 | 0.00 | 77 | 1015.5 |
| 20260902010503 | 53 | 192 | 2.6 | 5.2 | 0.00 | 0.00 | 0.00 | 76 | 1015.5 |
| 20260902010023 | 53 | 142 | 2.6 | 7.8 | 0.00 | 0.00 | 0.00 | 76 | 1015.6 |
| 20260902005511 | 53 | 117 | 1.7 | 7.8 | 0.00 | 0.00 | 0.00 | 76 | 1015.7 |
| 20260902005005 | 53 | 172 | 2.6 | 7.0 | 0.00 | 0.00 | 0.00 | 77 | 1015.8 |
| 20260902004504 | 52 | 213 | 1.7 | 7.0 | 0.00 | 0.00 | 0.00 | 77 | 1015.9 |
| 20260902004006 | 52 | 166 | 3.5 | 7.0 | 0.00 | 0.00 | 0.00 | 78 | 1015.9 |
| 20260902003504 | 52 | 180 | 2.6 | 6.1 | 0.00 | 0.00 | 0.00 | 78 | 1015.9 |
| 20260902003010 | 52 | 198 | 3.5 | 6.1 | 0.00 | 0.00 | 0.00 | 79 | 1015.8 |
| 20260902002505 | 51 | 167 | 2.6 | 5.2 | 0.00 | 0.00 | 0.00 | 79 | 1015.9 |
| 20260902002010 | 51 | 180 | 2.6 | 7.0 | 0.00 | 0.00 | 0.00 | 78 | 1016.0 |
| 20260902001514 | 51 | 169 | 4.3 | 7.0 | 0.00 | 0.00 | 0.00 | 79 | 1016.1 |
| 20260902001006 | 51 | 129 | 2.6 | 7.8 | 0.00 | 0.00 | 0.00 | 79 | 1016.1 |
| 20260902000512 | 51 | 180 | 3.5 | 7.8 | 0.00 | 0.00 | 0.00 | 79 | 1016.0 |
| 20260902000015 | 51 | 195 | 3.5 | 7.8 | 0.00 | 0.00 | 0.00 | 80 | 1016.1 |
| 20260901235514 | 50 | 172 | 4.3 | 7.0 | 0.00 | 0.00 | 0.00 | 80 | 1016.1 |
| 20260901235011 | 50 | 185 | 4.3 | 7.0 | 0.00 | 0.00 | 0.00 | 80 | 1016.0 |
| 20260901234510 | 50 | 198 | 4.3 | 7.8 | 0.00 | 0.00 | 0.00 | 81 | 1015.9 |
| 20260901234018 | 50 | 159 | 4.3 | 7.8 | 0.00 | 0.00 | 0.00 | 81 | 1016.0 |
| 20260901233507 | 50 | 193 | 3.5 | 7.0 | 0.00 | 0.00 | 0.00 | 81 | 1016.0 |
| 20260901233006 | 50 | 160 | 3.5 | 7.0 | 0.00 | 0.00 | 0.00 | 81 | 1016.1 |
| 20260901232506 | 51 | 172 | 2.6 | 5.2 | 0.00 | 0.00 | 0.00 | 82 | 1016.1 |
| 20260901232004 | 51 | 143 | 2.6 | 7.0 | 0.00 | 0.00 | 0.00 | 82 | 1016.1 |
| 20260901231510 | 50 | 175 | 4.3 | 7.0 | 0.00 | 0.00 | 0.00 | 82 | 1016.1 |
| 20260901231005 | 50 | 149 | 3.5 | 7.8 | 0.00 | 0.00 | 0.00 | 82 | 1016.1 |
| 20260901230506 | 51 | 159 | 3.5 | 7.8 | 0.00 | 0.00 | 0.00 | 82 | 1016.1 |
| 20260901230022 | 51 | 185 | 3.5 | 7.0 | 0.00 | 0.00 | 0.00 | 82 | 1016.1 |
| 20260901225513 | 51 | 199 | 3.5 | 7.8 | 0.00 | 0.00 | 0.00 | 82 | 1016.0 |
| 20260901225005 | 51 | 194 | 5.2 | 7.8 | 0.00 | 0.00 | 0.00 | 82 | 1016.1 |
| 20260901224529 | 51 | 196 | 4.3 | 7.0 | 0.00 | 0.00 | 0.00 | 82 | 1016.1 |
| 20260901224010 | 51 | 196 | 3.5 | 7.0 | 0.00 | 0.00 | 0.00 | 83 | 1016.1 |
| 20260901223513 | 51 | 189 | 2.6 | 4.3 | 0.00 | 0.00 | 0.00 | 83 | 1016.1 |
| 20260901223024 | 51 | 148 | 1.7 | 4.3 | 0.00 | 0.00 | 0.00 | 83 | 1016.1 |
| 20260901222508 | 51 | 104 | 2.6 | 4.3 | 0.00 | 0.00 | 0.00 | 83 | 1016.0 |
| 20260901222016 | 51 | 113 | 2.6 | 4.3 | 0.00 | 0.00 | 0.00 | 83 | 1016.1 |
| 20260901221521 | 50 | 133 | 3.5 | 4.3 | 0.00 | 0.00 | 0.00 | 83 | 1016.0 |
| 20260901221008 | 50 | 113 | 0.9 | 3.5 | 0.00 | 0.00 | 0.00 | 83 | 1015.9 |
| 20260901220505 | 50 | 160 | 0.9 | 3.5 | 0.00 | 0.00 | 0.00 | 83 | 1015.9 |
| 20260901220027 | 50 | 135 | 0.9 | 3.5 | 0.00 | 0.00 | 0.00 | 83 | 1015.8 |
| 20260901215512 | 50 | 137 | 1.7 | 4.3 | 0.00 | 0.00 | 0.00 | 83 | 1015.7 |
| 20260901215011 | 50 | 115 | 2.6 | 4.3 | 0.00 | 0.00 | 0.00 | 84 | 1015.6 |
| 20260901214509 | 50 | 145 | 1.7 | 3.5 | 0.00 | 0.00 | 0.00 | 84 | 1015.6 |
| 20260901214013 | 50 | 147 | 2.6 | 3.5 | 0.00 | 0.00 | 0.00 | 84 | 1015.5 |
| 20260901213512 | 50 | 153 | 1.7 | 2.6 | 0.00 | 0.00 | 0.00 | 84 | 1015.6 |
| 20260901213057 | 50 | 145 | 0.0 | 2.6 | 0.00 | 0.00 | 0.00 | 84 | 1015.6 |
| 20260901212514 | 50 | 145 | 0.9 | 3.5 | 0.00 | 0.00 | 0.00 | 84 | 1015.5 |
| 20260901212014 | 50 | 145 | 1.7 | 3.5 | 0.00 | 0.00 | 0.00 | 84 | 1015.4 |
| 20260901211514 | 50 | 153 | 0.9 | 2.6 | 0.00 | 0.00 | 0.00 | 84 | 1015.3 |
| 20260901211019 | 50 | 153 | 0.9 | 2.6 | 0.00 | 0.00 | 0.00 | 84 | 1015.3 |
| 20260901210511 | 50 | 153 | 0.0 | 2.6 | 0.00 | 0.00 | 0.00 | 84 | 1015.3 |
| 20260901210033 | 50 | 189 | 1.7 | 2.6 | 0.00 | 0.00 | 0.00 | 84 | 1015.3 |
| 20260901205518 | 50 | 197 | 0.0 | 2.6 | 0.00 | 0.00 | 0.00 | 83 | 1015.2 |
| 20260901205009 | 50 | 197 | 0.0 | 4.3 | 0.00 | 0.00 | 0.00 | 83 | 1015.3 |
| 20260901204512 | 50 | 197 | 1.7 | 4.3 | 0.00 | 0.00 | 0.00 | 83 | 1015.1 |
| 20260901204012 | 50 | 185 | 3.5 | 4.3 | 0.00 | 0.00 | 0.00 | 83 | 1015.0 |
| 20260901203510 | 50 | 191 | 2.6 | 4.3 | 0.00 | 0.00 | 0.00 | 83 | 1014.9 |
| 20260901203042 | 50 | 200 | 1.7 | 4.3 | 0.00 | 0.00 | 0.00 | 83 | 1015.1 |
| 20260901202511 | 50 | 202 | 2.6 | 4.3 | 0.00 | 0.00 | 0.00 | 83 | 1015.1 |
| 20260901202017 | 50 | 185 | 2.6 | 4.3 | 0.00 | 0.00 | 0.00 | 83 | 1015.0 |
| 20260901201525 | 50 | 197 | 1.7 | 4.3 | 0.00 | 0.00 | 0.00 | 83 | 1014.8 |
| 20260901201015 | 51 | 236 | 1.7 | 7.0 | 0.00 | 0.00 | 0.00 | 83 | 1014.7 |
| 20260901200515 | 51 | 206 | 3.5 | 7.0 | 0.00 | 0.00 | 0.00 | 83 | 1014.7 |
| 20260901200031 | 51 | 206 | 3.5 | 7.0 | 0.00 | 0.00 | 0.00 | 83 | 1014.7 |
| 20260901195514 | 51 | 164 | 2.6 | 8.7 | 0.00 | 0.00 | 0.00 | 83 | 1014.7 |
| 20260901195020 | 51 | 191 | 4.3 | 9.6 | 0.00 | 0.00 | 0.00 | 83 | 1014.6 |
| 20260901194523 | 51 | 167 | 4.3 | 9.6 | 0.00 | 0.00 | 0.00 | 83 | 1014.6 |
| 20260901194020 | 51 | 185 | 4.3 | 9.6 | 0.00 | 0.00 | 0.00 | 82 | 1014.6 |
| 20260901193508 | 52 | 180 | 6.1 | 10.4 | 0.00 | 0.00 | 0.00 | 82 | 1014.5 |
| 20260901193019 | 52 | 204 | 7.8 | 11.3 | 0.00 | 0.00 | 0.00 | 81 | 1014.3 |
| 20260901192512 | 53 | 149 | 7.0 | 11.3 | 0.00 | 0.00 | 0.00 | 80 | 1014.2 |
| 20260901192013 | 54 | 214 | 7.0 | 10.4 | 0.00 | 0.00 | 0.00 | 80 | 1014.1 |
| 20260901191525 | 54 | 199 | 6.1 | 9.6 | 0.00 | 0.00 | 0.00 | 79 | 1014.1 |
| 20260901191017 | 55 | 240 | 3.5 | 7.0 | 0.00 | 0.00 | 0.00 | 78 | 1013.9 |
| 20260901190514 | 55 | 8 | 2.6 | 9.6 | 0.00 | 0.00 | 0.00 | 78 | 1013.8 |
| 20260901190029 | 55 | 29 | 4.3 | 9.6 | 0.00 | 0.00 | 0.00 | 78 | 1013.7 |
| 20260901185517 | 54 | 14 | 4.3 | 9.6 | 0.00 | 0.00 | 0.00 | 78 | 1013.7 |
| 20260901185009 | 54 | 4 | 2.6 | 9.6 | 0.00 | 0.00 | 0.00 | 78 | 1013.7 |
| 20260901184532 | 54 | 349 | 2.6 | 7.0 | 0.00 | 0.00 | 0.00 | 78 | 1013.8 |
| 20260901184017 | 55 | 26 | 1.7 | 7.8 | 0.00 | 0.00 | 0.00 | 78 | 1013.7 |
| 20260901183517 | 55 | 3 | 5.2 | 7.8 | 0.00 | 0.00 | 0.00 | 78 | 1013.7 |
| 20260901183040 | 55 | 14 | 3.5 | 7.8 | 0.00 | 0.00 | 0.00 | 78 | 1013.6 |
| 20260901182512 | 55 | 8 | 4.3 | 7.8 | 0.00 | 0.00 | 0.00 | 78 | 1013.6 |
| 20260901182019 | 55 | 356 | 4.3 | 8.7 | 0.00 | 0.00 | 0.00 | 78 | 1013.6 |
| 20260901181523 | 55 | 314 | 4.3 | 8.7 | 0.00 | 0.00 | 0.00 | 78 | 1013.6 |
| 20260901181012 | 55 | 346 | 5.2 | 9.6 | 0.00 | 0.00 | 0.00 | 77 | 1013.5 |
| 20260901180516 | 55 | 332 | 6.1 | 9.6 | 0.00 | 0.00 | 0.00 | 77 | 1013.4 |
| 20260901180025 | 55 | 341 | 6.1 | 9.6 | 0.00 | 0.00 | 0.00 | 77 | 1013.4 |
| 20260901175516 | 55 | 326 | 5.2 | 9.6 | 0.00 | 0.00 | 0.00 | 77 | 1013.6 |
| 20260901175016 | 55 | 326 | 6.1 | 12.2 | 0.00 | 0.00 | 0.00 | 77 | 1013.6 |
| 20260901174526 | 55 | 346 | 7.0 | 12.2 | 0.00 | 0.00 | 0.00 | 76 | 1013.5 |
| 20260901174018 | 55 | 358 | 6.1 | 10.4 | 0.00 | 0.00 | 0.00 | 76 | 1013.5 |
| 20260901173521 | 55 | 343 | 5.2 | 9.6 | 0.00 | 0.00 | 0.00 | 76 | 1013.7 |
| 20260901173047 | 55 | 318 | 4.3 | 8.7 | 0.00 | 0.00 | 0.00 | 76 | 1013.8 |
| 20260901172508 | 55 | 333 | 4.3 | 7.8 | 0.00 | 0.00 | 0.00 | 76 | 1013.7 |
| 20260901172003 | 55 | 333 | 5.2 | 7.8 | 0.00 | 0.00 | 0.00 | 75 | 1013.6 |
| 20260901171517 | 55 | 324 | 4.3 | 7.8 | 0.00 | 0.00 | 0.00 | 75 | 1013.7 |
| 20260901171003 | 55 | 358 | 5.2 | 9.6 | 0.00 | 0.00 | 0.00 | 75 | 1013.6 |
| 20260901170503 | 55 | 345 | 6.1 | 9.6 | 0.00 | 0.00 | 0.00 | 75 | 1013.6 |
| 20260901170005 | 55 | 12 | 5.2 | 10.4 | 0.00 | 0.00 | 0.00 | 75 | 1013.7 |
| 20260901165504 | 55 | 29 | 6.1 | 10.4 | 0.00 | 0.00 | 0.00 | 76 | 1013.6 |
| 20260901165002 | 55 | 16 | 5.2 | 8.7 | 0.00 | 0.00 | 0.00 | 76 | 1013.7 |
| 20260901164505 | 55 | 342 | 5.2 | 8.7 | 0.00 | 0.00 | 0.00 | 75 | 1013.9 |
| 20260901164003 | 55 | 318 | 3.5 | 8.7 | 0.00 | 0.00 | 0.00 | 75 | 1013.9 |
| 20260901163506 | 55 | 320 | 5.2 | 8.7 | 0.00 | 0.00 | 0.00 | 76 | 1013.9 |
| 20260901163010 | 55 | 342 | 6.1 | 8.7 | 0.00 | 0.00 | 0.00 | 75 | 1014.0 |
| 20260901162504 | 54 | 314 | 4.3 | 7.8 | 0.00 | 0.00 | 0.00 | 76 | 1013.9 |
| 20260901162008 | 54 | 324 | 3.5 | 11.3 | 0.00 | 0.00 | 0.00 | 75 | 1013.8 |
| 20260901161507 | 54 | 343 | 6.1 | 11.3 | 0.00 | 0.00 | 0.00 | 75 | 1013.8 |
| 20260901161010 | 54 | 1 | 7.0 | 10.4 | 0.00 | 0.00 | 0.00 | 74 | 1013.8 |
| 20260901160508 | 55 | 358 | 7.0 | 12.2 | 0.00 | 0.00 | 0.00 | 74 | 1013.9 |
| 20260901160006 | 55 | 340 | 7.0 | 13.0 | 0.00 | 0.00 | 0.00 | 73 | 1013.9 |
| 20260901155509 | 55 | 331 | 8.7 | 15.6 | 0.00 | 0.00 | 0.00 | 73 | 1013.9 |
| 20260901155005 | 55 | 313 | 8.7 | 15.6 | 0.00 | 0.00 | 0.00 | 73 | 1014.0 |
| 20260901154504 | 56 | 341 | 9.6 | 22.6 | 0.00 | 0.00 | 0.00 | 72 | 1014.0 |
| 20260901154004 | 56 | 342 | 9.6 | 22.6 | 0.00 | 0.00 | 0.00 | 71 | 1013.9 |
| 20260901153505 | 56 | 342 | 12.2 | 15.6 | 0.00 | 0.00 | 0.00 | 72 | 1013.9 |
| 20260901153007 | 56 | 336 | 9.6 | 15.6 | 0.00 | 0.00 | 0.00 | 71 | 1014.0 |
| 20260901152512 | 56 | 354 | 10.4 | 15.6 | 0.00 | 0.00 | 0.00 | 71 | 1013.9 |
| 20260901152004 | 56 | 330 | 9.6 | 15.6 | 0.00 | 0.00 | 0.00 | 71 | 1013.9 |
| 20260901151512 | 56 | 335 | 9.6 | 15.6 | 0.00 | 0.00 | 0.00 | 70 | 1013.9 |
| 20260901151020 | 57 | 331 | 9.6 | 19.1 | 0.00 | 0.00 | 0.00 | 70 | 1013.8 |
| 20260901150503 | 57 | 341 | 10.4 | 19.1 | 0.00 | 0.00 | 0.00 | 70 | 1013.8 |
| 20260901150014 | 57 | 345 | 10.4 | 18.2 | 0.00 | 0.00 | 0.00 | 69 | 1014.0 |
| 20260901145504 | 57 | 352 | 10.4 | 18.2 | 0.00 | 0.00 | 0.00 | 69 | 1014.0 |
| 20260901145012 | 57 | 346 | 12.2 | 19.1 | 0.00 | 0.00 | 0.00 | 69 | 1013.9 |
| 20260901144523 | 57 | 341 | 12.2 | 19.1 | 0.00 | 0.00 | 0.00 | 69 | 1013.9 |
| 20260901144004 | 57 | 351 | 10.4 | 18.2 | 0.00 | 0.00 | 0.00 | 70 | 1014.0 |
| 20260901143513 | 57 | 348 | 10.4 | 18.2 | 0.00 | 0.00 | 0.00 | 70 | 1014.0 |
| 20260901143005 | 57 | 329 | 9.6 | 16.5 | 0.00 | 0.00 | 0.00 | 70 | 1014.0 |
| 20260901142504 | 57 | 336 | 10.4 | 17.4 | 0.00 | 0.00 | 0.00 | 71 | 1014.0 |
| 20260901142006 | 57 | 22 | 10.4 | 17.4 | 0.00 | 0.00 | 0.00 | 71 | 1013.9 |
| 20260901141508 | 57 | 351 | 10.4 | 16.5 | 0.00 | 0.00 | 0.00 | 71 | 1013.9 |
| 20260901141008 | 57 | 349 | 10.4 | 17.4 | 0.00 | 0.00 | 0.00 | 70 | 1014.0 |
| 20260901140506 | 57 | 14 | 10.4 | 17.4 | 0.00 | 0.00 | 0.00 | 70 | 1014.0 |
| 20260901140005 | 57 | 16 | 9.6 | 15.6 | 0.00 | 0.00 | 0.00 | 70 | 1013.9 |
| 20260901135508 | 57 | 345 | 10.4 | 15.6 | 0.00 | 0.00 | 0.00 | 70 | 1014.0 |
| 20260901135008 | 57 | 327 | 9.6 | 16.5 | 0.00 | 0.00 | 0.00 | 71 | 1014.1 |
| 20260901134523 | 57 | 341 | 9.6 | 16.5 | 0.00 | 0.00 | 0.00 | 71 | 1014.3 |
| 20260901134019 | 57 | 1 | 7.8 | 14.8 | 0.00 | 0.00 | 0.00 | 71 | 1014.3 |
| 20260901133507 | 57 | 353 | 7.8 | 13.0 | 0.00 | 0.00 | 0.00 | 71 | 1014.2 |
| 20260901133028 | 57 | 337 | 7.0 | 11.3 | 0.00 | 0.00 | 0.00 | 71 | 1014.2 |
| 20260901132510 | 57 | 8 | 7.0 | 11.3 | 0.00 | 0.00 | 0.00 | 71 | 1014.3 |
| 20260901132004 | 57 | 21 | 7.0 | 11.3 | 0.00 | 0.00 | 0.00 | 70 | 1014.3 |
| 20260901131506 | 57 | 19 | 5.2 | 13.9 | 0.00 | 0.00 | 0.00 | 69 | 1014.4 |
| 20260901131006 | 57 | 327 | 7.8 | 13.9 | 0.00 | 0.00 | 0.00 | 68 | 1014.6 |
| 20260901130506 | 57 | 322 | 8.7 | 13.9 | 0.00 | 0.00 | 0.00 | 68 | 1014.4 |
| 20260901130018 | 57 | 3 | 8.7 | 13.9 | 0.00 | 0.00 | 0.00 | 68 | 1014.5 |
| 20260901125506 | 57 | 316 | 7.8 | 13.9 | 0.00 | 0.00 | 0.00 | 69 | 1014.5 |
| 20260901125008 | 57 | 335 | 7.8 | 16.5 | 0.00 | 0.00 | 0.00 | 69 | 1014.4 |
| 20260901124515 | 57 | 348 | 11.3 | 18.2 | 0.00 | 0.00 | 0.00 | 69 | 1014.4 |
| 20260901124010 | 57 | 342 | 11.3 | 18.2 | 0.00 | 0.00 | 0.00 | 68 | 1014.5 |
| 20260901123515 | 57 | 350 | 10.4 | 15.6 | 0.00 | 0.00 | 0.00 | 69 | 1014.4 |
| 20260901123019 | 57 | 352 | 10.4 | 16.5 | 0.00 | 0.00 | 0.00 | 69 | 1014.4 |
| 20260901122517 | 57 | 339 | 11.3 | 20.0 | 0.00 | 0.00 | 0.00 | 69 | 1014.5 |
| 20260901122012 | 57 | 12 | 11.3 | 20.0 | 0.00 | 0.00 | 0.00 | 69 | 1014.5 |
| 20260901121511 | 57 | 342 | 11.3 | 19.1 | 0.00 | 0.00 | 0.00 | 69 | 1014.6 |
| 20260901121015 | 58 | 349 | 11.3 | 20.0 | 0.00 | 0.00 | 0.00 | 68 | 1014.6 |
| 20260901120510 | 58 | 339 | 12.2 | 20.9 | 0.00 | 0.00 | 0.00 | 68 | 1014.6 |
| 20260901120048 | 58 | 337 | 13.0 | 20.9 | 0.00 | 0.00 | 0.00 | 68 | 1014.7 |
| 20260901115507 | 58 | 323 | 13.0 | 20.9 | 0.00 | 0.00 | 0.00 | 68 | 1014.9 |
| 20260901115014 | 58 | 325 | 13.0 | 20.0 | 0.00 | 0.00 | 0.00 | 68 | 1014.9 |
| 20260901114512 | 58 | 318 | 12.2 | 19.1 | 0.00 | 0.00 | 0.00 | 67 | 1015.0 |
| 20260901114007 | 59 | 322 | 12.2 | 22.6 | 0.00 | 0.00 | 0.00 | 67 | 1015.0 |
| 20260901113508 | 59 | 328 | 13.0 | 22.6 | 0.00 | 0.00 | 0.00 | 67 | 1015.2 |
| 20260901113018 | 59 | 352 | 11.3 | 20.0 | 0.00 | 0.00 | 0.00 | 67 | 1015.2 |
| 20260901112511 | 59 | 343 | 12.2 | 18.2 | 0.00 | 0.00 | 0.00 | 66 | 1015.1 |
| 20260901112011 | 58 | 339 | 10.4 | 17.4 | 0.00 | 0.00 | 0.00 | 67 | 1015.0 |
| 20260901111521 | 58 | 342 | 11.3 | 16.5 | 0.00 | 0.00 | 0.00 | 66 | 1014.8 |
| 20260901111008 | 59 | 332 | 9.6 | 20.0 | 0.00 | 0.00 | 0.00 | 66 | 1014.7 |
| 20260901110517 | 59 | 332 | 11.3 | 20.0 | 0.00 | 0.00 | 0.00 | 65 | 1014.6 |
| 20260901110019 | 59 | 347 | 10.4 | 16.5 | 0.00 | 0.00 | 0.00 | 65 | 1014.6 |
| 20260901105518 | 59 | 338 | 10.4 | 16.5 | 0.00 | 0.00 | 0.00 | 65 | 1014.6 |
| 20260901105017 | 59 | 350 | 10.4 | 18.2 | 0.00 | 0.00 | 0.00 | 64 | 1014.5 |
| 20260901104516 | 60 | 10 | 10.4 | 18.2 | 0.00 | 0.00 | 0.00 | 64 | 1014.4 |
| 20260901104022 | 60 | 341 | 10.4 | 18.2 | 0.00 | 0.00 | 0.00 | 64 | 1014.4 |
| 20260901103511 | 60 | 349 | 8.7 | 18.2 | 0.00 | 0.00 | 0.00 | 64 | 1014.5 |
| 20260901103018 | 60 | 343 | 13.0 | 18.2 | 0.00 | 0.00 | 0.00 | 63 | 1014.5 |